Tracking 29892 objects as of 21-Nov-2024
HD Live streaming from Space Station
objects crossing your sky now

ONEWEB-0234

Track ONEWEB-0234 now!
10-day predictions
ONEWEB-0234 is classified as:


NORAD ID: 48783
Int'l Code: 2021-045S
Perigee: 1,208.0 km
Apogee: 1,209.8 km
Inclination: 87.9 °
Period: 109.5 minutes
Semi major axis: 7579 km
RCS: Unknown
Launch date: May 28, 2021
Source: United Kingdom (UK)
Launch site: VOSTOCHNY COSMODROME (VOSTO)
Your satellite tracking list
Your tracking list is empty




NASA's NSSDC Master Catalog

Two Line Element Set (TLE):
1 48783U 21045S   24325.13869474  .00000182  00000-0  45046-3 0  9993
2 48783  87.9095  13.4619 0001196 140.0913 220.0306 13.15546911169004
Source of the keplerian elements: AFSPC